Showing default

LEMUR 2 STELLA, 60533

Orbit data source: Space-Track

LEMUR 2 STELLA, 60533 is a payload satellite owned by Spire (US) in SSO that was launched on Fri, 16 Aug 2024 UTC via an FALCON 9 launch vehicle from the Air Force Western Test Range (AFWTR). Payload-class satellites include a variety of spacecraft equipped with specific instruments for various scientific and technological missions. These include communications satellites like Starlink; space stations such as the ISS; scientific satellites like the Hubble; Earth observation satellites from companies like Planet Labs, Umbra, and HawkEye 360; GPS; miniature CubeSats for education and research; and military/defense satellites.

Loading next visibility...
Identifier
60533, 2024-149BT
Orbit
SSO
Country
Flag of USUS
Related business
Manufacturer
Spire/Glasgow
Mission
Operational Commercial Com/MetRO
Bus & Motor
CUBESAT 3U, Unknown motor
Mass
7.6 kg wet, 7.6 kg dry
Launch date (UTC)
2024-08-16 (2 years ago)
Launch vehicle
FALCON 9
Launch site
Air Force Western Test Range (AFWTR)
Object type
Payload
Rocket body
Debris
Shape & HBR
Box + 2 Pan, 0.5 m
Radar Cross Section
0.063 m², Medium (>0.1 m² and < 1m²)

Expand to show TLE details & history
Last TLE update: 5 days ago

TLE from 5 days ago
0 LEMUR 2 STELLA
1 60533U 24149BT  26154.77678173  .00013306  00000-0  78877-3 0  9994
2 60533  97.6744 237.1777 0001930 107.4795 252.6646 15.11502384 98475
Epoch: 2026-06-03T18:38Z
TLE epoch observation values (Epoch: 2026-06-03T18:38:33.941Z)
Latitude
-0°
Longitude
65.30574°
Altitude
535.086 km
Speed
7.595 km/s
True Right ascension
15h 48m 42s
True Declination
0° 00' 00"
Sunlit
Object was in full shadow at epoch
Visualization orbit readout
Latitude
Unknown
Longitude
Unknown
Altitude
Unknown
Speed
Unknown
Apparent Right ascension
Unknown
Apparent Declination
Unknown
Sunlit
N/A
Visualization observer readout
Local Sidereal Time
04:09:56
Azimuth
Unknown
Elevation
Unknown
Doppler factor
Unknown
Orbital elements
Apogee altitude
529.939 km
Perigee altitude
527.273 km
Semi-major axis
6,906.743 km
Eccentricity
0.00019
Inclination
97.6744°
RAAN
237.1777°
Arg. of periapsis
107.4795°
True anomaly
252.64349°
Mean anomaly
252.6646°
Eccentric anomaly
252.65404°
Mean motion
3.78123 °/min
Orbital period
95.21 mins
BSTAR
0.00078877
Loading maneuver chart data...
Computing Atmospheric mass density...
Loading historical data...
Loading historical data...
Loading historical data...
Loading historical data...
Loading historical data...
Loading historical data...
Loading historical data...

Documentation

Showing up to 5 results
|